Flag for Reunion (French) Weather past 2 weeks in Saint-Denis, Reunion (French)

Now
75 °F

Partly sunny.


Feels Like: 77 °F
Forecast: 69 / 76 °F
Wind: 24 mph from Southeast

Location: Saint-Denis / Gillot

Current Time: Jul 25, 2014 at 12:27:42 PM

Latest Report: Jul 25, 2014 at 12:00 PM


Visibility: N/A

Pressure: 30.21 "Hg

Humidity: 65%

Dew point: 63 °F

Location of Saint-DenisLocation

Historic Weather in Saint-Denis — Graph

°F

Saint-Denis temperature yesterday

Maximum temperature yesterday: 77 °F (at 1:00 PM)
Minimum temperature yesterday: 70 °F (at 12:30 AM)
Average temperature yesterday: 72 °F

Past Weeks' High & Low Weather Summary

 TemperatureHumidityPressure
High81 °F (Jul 10, 11:00 AM)94% (Jul 22, 6:30 PM)30.30 "Hg (Jul 22, 6:30 PM)
Low61 °F (Jul 11, 2:30 AM)34% (Jul 11, 11:00 AM)30.04 "Hg (Jul 10, 12:30 PM)
Average72 °F68%30.17 "Hg
* Reported Jul 10 11:00 AM — Jul 25 11:30 AM, Saint-Denis, Weather by CustomWeather, © 2014

Note: Actual official high and low records may vary slightly from our data, if they occured in-between our weather recording intervals... More about our weather records

Advertising

Saint-Denis weather history for previous 24 hours

 ConditionsComfort  
Time TempWeatherWind HumidityBarometerVisibility
11:30 AM
Jul 25
75 °FPartly sunny.23 mph65%30.24 "HgN/A
11:00 AM75 °FPartly sunny.24 mph65%30.24 "HgN/A
10:30 AM75 °FPartly sunny.24 mph65%30.24 "HgN/A
10:00 AM73 °FPartly sunny.23 mph69%30.24 "HgN/A
9:30 AM73 °FPartly sunny.22 mph69%30.24 "HgN/A
9:00 AM73 °FPartly sunny.23 mph74%30.24 "HgN/A
8:30 AM73 °FPartly sunny.14 mph74%30.21 "HgN/A
8:00 AM70 °FPartly sunny.16 mph83%30.21 "HgN/A
7:30 AM70 °FLight rain. Partly sunny.15 mph83%30.21 "HgN/A
7:00 AM68 °FLight rain. Partly sunny.17 mph88%30.21 "HgN/A
6:30 AM68 °FLight rain. Scattered clouds.17 mph88%30.21 "HgN/A
6:00 AM68 °FSprinkles. Scattered clouds.15 mph88%30.18 "HgN/A
5:30 AM70 °FScattered showers. Passing clouds.17 mph78%30.18 "HgN/A
5:00 AM70 °FScattered showers. Passing clouds.17 mph78%30.18 "HgN/A
4:00 AM70 °FPartly cloudy.17 mph78%30.18 "HgN/A
3:30 AM70 °FPassing clouds.17 mph78%30.18 "HgN/A
3:00 AM70 °FPartly cloudy.20 mph73%30.18 "HgN/A
2:30 AM70 °FPassing clouds.17 mph78%30.18 "HgN/A
2:00 AM70 °FPassing clouds.18 mph78%30.18 "HgN/A
1:30 AM70 °FPassing clouds.17 mph78%30.21 "HgN/A
1:00 AM70 °FPassing clouds.17 mph78%30.21 "HgN/A
12:30 AM70 °FPartly cloudy.17 mph78%30.21 "HgN/A
12:00 AM70 °FPartly cloudy.18 mph78%30.21 "HgN/A
11:30 PM
Jul 24
70 °FLight rain. Partly cloudy.18 mph78%30.24 "HgN/A
11:00 PM70 °FPassing clouds.15 mph78%30.24 "HgN/A
10:30 PM70 °FPassing clouds.18 mph78%30.24 "HgN/A
10:14 PM70 °FPassing clouds.18 mph78%30.24 "HgN/A
9:30 PM70 °FPassing clouds.18 mph73%30.24 "HgN/A
9:00 PM70 °FPassing clouds.20 mph78%30.21 "HgN/A
8:30 PM70 °FScattered showers. Passing clouds.20 mph78%30.21 "HgN/A
8:00 PM70 °FScattered showers. Passing clouds.17 mph78%30.21 "HgN/A
7:30 PM70 °FLight rain. Passing clouds.20 mph78%30.21 "HgN/A
7:00 PM70 °FLight rain. Passing clouds.20 mph83%30.21 "HgN/A
6:00 PM70 °FScattered showers. Passing clouds.20 mph78%30.18 "HgN/A
5:30 PM72 °FScattered showers. Passing clouds.20 mph73%30.18 "HgN/A
5:00 PM72 °FScattered showers. Passing clouds.21 mph73%30.18 "HgN/A
4:30 PM73 °FScattered clouds.22 mph69%30.18 "HgN/A
4:00 PM73 °FScattered clouds.20 mph69%30.18 "HgN/A
3:30 PM75 °FScattered clouds.23 mph65%30.15 "HgN/A
3:00 PM75 °FScattered clouds.26 mph61%30.15 "HgN/A
2:30 PM75 °FScattered clouds.24 mph61%30.15 "HgN/A
2:00 PM75 °FScattered clouds.25 mph61%30.18 "HgN/A
1:30 PM75 °FScattered clouds.25 mph61%30.18 "HgN/A
1:00 PM77 °FScattered clouds.28 mph61%30.18 "HgN/A
12:30 PM75 °FScattered clouds.25 mph65%30.18 "HgN/A
12:00 PM75 °FScattered clouds.24 mph65%30.21 "HgN/A
Weather by CustomWeather, © 2014

See weather overviewHow to use our weather pages